Regional Weather Roundup
Issued by NWS

Home | Current Version | Previous Version | Text Only | Print | Product List | Glossary Off
Versions: 1 2 3 4 5 6 7 8 9 10 11 12 13 14 15 16 17 18 19 20 21 22 23 24 25 26 27 28 29 30 31 32 33 34 35 36 37 38 39 40 41 42 43 44 45 46 47 48 49 50

000
ASUS43 KFSD 240910
RWRSD

WEATHER ROUNDUP FOR SOUTH DAKOTA
NATIONAL WEATHER SERVICE SIOUX FALLS SD
400 AM CDT THU JUL 24 2014

NOTE: "FAIR" INDICATES FEW OR NO CLOUDS BELOW 12,000 FEET WITH NO
SIGNIFICANT WEATHER AND/OR OBSTRUCTIONS TO VISIBILITY.


SDZ001>005-009-010-012>017-241000-
NORTHWEST AND NORTH CENTRAL SOUTH DAKOTA

CITY           SKY/WX    TMP DP  RH WIND       PRES   REMARKS
BUFFALO          N/A     68  57  68 E12G23    29.82F
FAITH            N/A     68  57  68 SE24G39   29.91F
MOBRIDGE       MOCLDY    67  58  72 SE18G25   30.01F
$$

SDZ012>016-024>037-041>051-057-063-072>074-241000-
SOUTHWEST AND SOUTH CENTRAL SOUTH DAKOTA

CITY           SKY/WX    TMP DP  RH WIND       PRES   REMARKS
RAPID CTY ARPT CLOUDY    66  63  90 S6        29.95F
PIERRE         MOCLDY    70  59  68 SE17      30.01F
CUSTER         MOCLDY    68  61  78 E3        30.11F
ELLSWORTH AFB  MOCLDY    69  64  83 S10       29.94F
PHILIP         PTCLDY    68  58  70 E9        29.96F
PINE RIDGE     MOCLDY    70  64  81 S24G32    29.98F
WINNER         CLOUDY    71  58  63 SE16G23   30.04F
$$

SDZ004>011-016>023-039-040-241000-
NORTHEAST SOUTH DAKOTA

CITY           SKY/WX    TMP DP  RH WIND       PRES   REMARKS
ABERDEEN       CLEAR     60  57  89 SE7       30.10F
WATERTOWN      PTCLDY    62  53  72 SE5       30.15F
SISSETON         N/A     57  57 100 CALM      30.13F
$$

SDZ017-020-022-023-036>040-048>070-241000-
SOUTHEAST SOUTH DAKOTA

CITY           SKY/WX    TMP DP  RH WIND       PRES   REMARKS
SIOUX FALLS    CLEAR     64  55  72 E9        30.14F
HURON          MOCLDY    64  54  69 SE8       30.09F
CHAMBERLAIN    CLOUDY    66  58  76 SE10G16   30.06F
MITCHELL       PTCLDY    65  59  81 SE8       30.10F
YANKTON        MOCLDY    61  57  88 E7        30.11F
$$

ABBREVIATIONS USED IN REMARKS
   TC - TEMPERATURE IN CELSIUS
  WCI - WIND CHILL INDEX
   HX - HEAT INDEX
  VSB - VISIBILITY




USA.gov is the U.S. government's official web portal to all federal, state and local government web resources and services.